Location: L�r Na Cruinne Observatory
(51.0505°N, 114.1691°W)
Time: 14:55:30
(UTC-06:00)

ISS - Visible Passes

Search period start: 17 July 2019 00:00
Search period end: 27 July 2019 00:00
Orbit: 409 x 418 km, 51.6° (Epoch: 18 July)

Date Brightness Start Highest point End Pass type
(mag) Time Alt. Az. Time Alt. Az. Time Alt. Az.
17 Jul -3.9 00:25:43 10° WSW 00:29:01 64° SSE 00:32:18 10° E visible
17 Jul -3.7 02:02:22 10° W 02:05:42 78° N 02:09:01 10° E visible
17 Jul -3.9 03:39:06 10° W 03:42:23 61° SSW 03:45:40 10° ESE visible
17 Jul -3.6 23:36:33 10° SW 23:39:47 47° SSE 23:42:59 10° E visible
18 Jul -3.8 01:13:03 10° W 01:16:23 81° N 01:19:43 10° E visible
18 Jul -4.0 02:49:47 10° W 02:53:07 79° SSW 02:56:25 10° ESE visible
18 Jul -2.7 04:26:45 10° W 04:29:30 24° SW 04:32:15 10° SSE visible
18 Jul -3.1 22:47:31 10° SW 22:50:34 33° SSE 22:53:36 10° E visible
19 Jul -3.9 00:23:43 10° W 00:27:03 89° NNW 00:30:24 10° E visible
19 Jul -3.9 02:00:28 10° W 02:03:49 88° NNE 02:07:08 10° E visible
19 Jul -3.2 03:37:15 10° W 03:40:19 35° SSW 03:43:22 10° SE visible
19 Jul -3.9 23:34:25 10° WSW 23:37:45 76° SSE 23:41:04 10° E visible
20 Jul -3.8 01:11:09 10° W 01:14:28 80° N 01:17:48 10° E visible
20 Jul -3.7 02:47:52 10° W 02:51:07 49° SSW 02:51:08 49° SSW visible
20 Jul -3.8 22:45:09 10° WSW 22:48:26 59° SSE 22:51:44 10° E visible
21 Jul -3.7 00:21:47 10° W 00:25:07 78° N 00:28:27 10° E visible
21 Jul -3.9 01:58:30 10° W 02:01:41 65° SW 02:01:41 65° SW visible
21 Jul -3.7 23:32:24 10° W 23:35:45 82° N 23:39:05 10° E visible
22 Jul -4.0 01:09:09 10° W 01:12:30 83° SSW 01:13:14 51° ESE visible
22 Jul -3.8 22:43:03 10° WSW 22:46:23 87° SSE 22:49:44 10° E visible
23 Jul -3.8 00:19:47 10° W 00:23:08 85° N 00:25:04 23° E visible
23 Jul -1.9 01:56:33 10° W 01:57:51 20° W 01:57:51 20° W visible
23 Jul -3.7 23:30:24 10° W 23:33:45 79° N 23:37:01 10° E visible
24 Jul -3.3 01:07:08 10° W 01:09:49 45° WSW 01:09:49 45° WSW visible
24 Jul -3.7 22:41:00 10° W 22:44:21 79° N 22:47:41 10° E visible
25 Jul -3.9 00:17:44 10° W 00:21:04 71° SSW 00:21:51 47° SE visible
25 Jul -3.9 23:28:20 10° W 23:31:41 87° SSW 23:33:54 20° ESE visible
26 Jul -2.0 01:05:11 10° W 01:06:43 21° WSW 01:06:43 21° WSW visible
26 Jul -3.7 22:38:55 10° W 22:42:16 83° N 22:45:37 10° E visible
